Simultaneous Nadir Overpasses (SNOs) Predictions

Prediction of SNOs between NOAA-19 and TERRA Satellite Orbit:

Table of predicted SNOs for the next 14.0 days since TLE Epoch: 11/1/2014
Index Date (NOAA-19) Time (NOAA-19) Lat,Lon (NOAA-19) SZA (NOAA-19 ) Date (TERRA) Time (TERRA) Lat,Lon (TERRA) SZA (TERRA ) Distance(km) Time Diff (sec)
1 11/02/2014 21:39:42 71.86,-144.00 86.77 11/02/2014 21:40:49 71.77,-141.84 86.75 75.79 67
2 11/02/2014 22:30:26 -71.10, 24.67 93.95 11/02/2014 22:30:29 -71.12, 24.72 93.93 3.03 3
3 11/02/2014 23:21:16 70.35,-166.84 85.37 11/02/2014 23:20:08 70.36,-168.79 85.29 72.79 68
4 11/05/2014 03:14:08 -71.12, -46.26 93.26 11/05/2014 03:14:45 -71.14, -46.31 93.23 3.13 37
5 11/05/2014 04:05:10 71.03, 121.13 86.68 11/05/2014 04:04:12 71.03, 121.17 86.67 1.42 58
6 11/07/2014 07:57:51 -71.20,-117.30 92.52 11/07/2014 07:59:01 -71.19,-117.30 92.52 0.42 70
7 11/07/2014 08:48:52 71.09, 50.13 87.40 11/07/2014 08:48:28 71.09, 50.18 87.39 1.87 24
8 11/09/2014 13:32:33 71.11, -20.80 88.05 11/09/2014 13:32:45 71.12, -20.84 88.06 1.94 12
9 11/09/2014 14:23:29 -70.86, 146.88 92.18 11/09/2014 14:22:17 -70.91, 146.46 92.16 16.48 72
10 11/11/2014 18:16:15 71.19, -91.83 88.74 11/11/2014 18:17:02 71.19, -91.81 88.74 0.71 47
11 11/11/2014 19:07:14 -71.06, 75.64 91.38 11/11/2014 19:06:32 -71.09, 75.66 91.37 2.73 42
12 11/13/2014 23:00:04 71.64,-163.54 89.75 11/13/2014 23:01:14 71.56,-162.29 89.72 44.85 70
13 11/13/2014 23:50:56 -71.12, 4.65
